This is the latest recevied weather packets stored in our database for station/object W8KVG. If no packets are shown the sender has not sent any weather packets the latest 10 day(s).
| Time | Temp. | Humidity | Pressure | Rain* | Wind** | Luminosity | Snow |
|---|---|---|---|---|---|---|---|
| 1778155707 | 6.67° C | 91% | 1012.5 hPa | 0 mm | - | 28 W/m² | - |
| 1778155403 | 6.67° C | 93% | 1012.5 hPa | 0 mm | - | 27 W/m² | - |
| 1778155099 | 6.67° C | 94% | 1012.6 hPa | 0 mm | - | 27 W/m² | - |
| 1778154795 | 6.11° C | 95% | 1012.6 hPa | 0 mm | - | 37 W/m² | - |
| 1778154491 | 5.56° C | 96% | 1012.8 hPa | 0 mm | - | 40 W/m² | - |
| 1778154189 | 5° C | 96% | 1012.7 hPa | 0 mm | - | 27 W/m² | - |
| 1778153886 | 4.44° C | 96% | 1012.7 hPa | 0 mm | - | 24 W/m² | - |
| 1778153583 | 4.44° C | 96% | 1012.7 hPa | 0 mm | - | 23 W/m² | - |
| 1778153280 | 3.89° C | 96% | 1012.7 hPa | 0 mm | - | 21 W/m² | - |
| 1778152977 | 3.89° C | 96% | 1012.6 hPa | 0 mm | - | 20 W/m² | - |
| 1778152675 | 3.33° C | 96% | 1012.4 hPa | 0 mm | - | 19 W/m² | - |
| 1778152371 | 3.33° C | 96% | 1012.5 hPa | 0 mm | - | 18 W/m² | - |
| 1778152066 | 2.78° C | 96% | 1012.3 hPa | 0 mm | - | 16 W/m² | - |
| 1778151758 | 2.78° C | 95% | 1012.4 hPa | 0 mm | - | 15 W/m² | - |
| 1778151455 | 2.22° C | 95% | 1012.3 hPa | 0 mm | - | 14 W/m² | - |
| 1778151151 | 2.22° C | 95% | 1012.3 hPa | 0 mm | - | 12 W/m² | - |
| 1778150848 | 2.22° C | 95% | 1012.3 hPa | 0 mm | - | 11 W/m² | - |
| 1778150545 | 2.78° C | 94% | 1012.2 hPa | 0 mm | - | 9 W/m² | - |
| 1778150241 | 2.22° C | 95% | 1012.2 hPa | 0 mm | - | 8 W/m² | - |
| 1778149937 | 2.22° C | 95% | 1012 hPa | 0 mm | - | 6 W/m² | - |
| 1778149633 | 2.22° C | 94% | 1012 hPa | 0 mm | - | 5 W/m² | - |
| 1778149325 | 2.22° C | 94% | 1012.1 hPa | 0 mm | - | 3 W/m² | - |
| 1778149021 | 2.78° C | 94% | 1012.1 hPa | 0 mm | - | 2 W/m² | - |
| 1778148716 | 2.78° C | 95% | 1011.9 hPa | 0 mm | - | 1 W/m² | - |
| 1778148414 | 2.78° C | 94% | 1012.3 hPa | 0 mm | - | 1 W/m² | - |
* Rain latest hour (hover to see other rain measurements)
** Current wind speed in m/s (hover to see current wind gust speed)